[[{"header":{"parameterUnit":"m.s-1","parameterCategory":1,"la1":30.2991,"la2":30.254,"lo1":-89.0895,"lo2":-89.0444,"dy":0.0017,"dx":0.0017,"nx":28,"ny":28,"refTime":"2024-05-16T03:00:00:Z","depth":0,"parameterNumber":2,"parameterNumberName":"U-component_of_WINDS"},"data":[0,0,0,0,0,0,0,0,0,0,0,0,0,0,0,0,0,0,0,0,0,0,0,0,0,0,0,0,0,0,0,0,0,0,0,0,0,0,0,0,0,0,0,0,0,0,0,0,0,0,0,0,0,0,0,0,0,0,1.8469,1.8469,0,1.8419,1.8419,1.8418,1.8328,1.8326,1.8325,1.8323,1.8273,1.8273,1.8273,0,0,0,0,0,0,0,0,0,0,0,0,0,1.8487,1.8488,1.8469,1.8469,1.8468,1.8419,1.8419,1.8418,1.8329,1.8326,1.8324,1.8322,1.8273,1.8273,1.8273,0,0,0,0,0,0,0,0,0,0,0,0,0,1.8463,1.8488,1.8469,1.8418,1.8412,1.8419,1.8419,1.8418,1.8329,1.8326,1.8324,1.8321,1.8273,1.8273,1.8273,1.8327,0,0,1.8275,1.8275,0,0,0,0,0,0,0,0,1.8464,1.8462,1.8426,1.8421,1.8415,1.8377,1.8406,1.8387,1.833,1.8361,1.8323,1.832,1.831,1.8307,1.8303,1.8325,1.8323,1.8275,1.8275,1.8275,1.8275,0,0,0,0,0,0,0,1.8466,1.8464,1.8449,1.8425,1.8419,1.8397,1.839,1.8402,1.835,1.8358,1.8351,1.8346,1.8306,1.8303,1.8301,1.8322,1.8275,1.8275,1.8275,1.8275,1.8383,1.8386,0,0,0,0,0,0,1.8475,1.8466,1.8451,1.8448,1.8434,1.8398,1.8391,1.8392,1.835,1.8341,1.8349,1.8342,1.8304,1.8301,1.8299,1.8358,1.8275,1.8275,1.8276,1.838,1.8384,1.8386,0,0,0,0,0,0,1.8476,1.8475,1.8453,1.8455,1.8451,1.8401,1.8403,1.8393,1.8389,1.8343,1.8333,1.8355,1.8302,1.8299,1.832,1.8355,1.8276,1.8276,1.8377,1.8381,1.8385,1.8477,0,0,0,0,0,0,1.8477,1.8476,1.8496,1.8456,1.8451,1.8476,1.8405,1.8393,1.839,1.8381,1.8346,1.8338,1.8299,1.832,1.8321,1.8354,1.8276,1.8374,1.8379,1.8384,1.8471,1.8484,1.8495,0,0,0,0,0,1.8478,1.8525,1.8497,1.8496,1.8475,1.8478,1.8475,1.8429,1.8393,1.8413,1.8383,1.8339,1.8351,1.8323,1.8323,1.8357,1.8372,1.8378,1.8383,1.8465,1.8481,1.8494,0,0,0,0,0,0,1.8571,1.8518,1.8488,1.8523,1.8505,1.8463,1.8486,1.8448,1.844,1.8433,1.8376,1.8369,1.8398,1.838,1.8349,1.8406,1.8354,1.8361,1.8417,1.8431,1.8443,1.8447,1.8277,0,0,0,0,0,1.8595,1.8601,1.8556,1.8591,1.8584,1.8537,1.8536,1.8502,1.8482,1.8474,1.8446,1.8428,1.8427,1.8428,1.8426,1.8467,1.8458,1.8491,1.8503,1.8513,1.8519,1.8538,1.8551,1.8406,1.8406,1.8406,0,0,1.8646,1.8618,1.8626,1.8609,1.8591,1.8599,1.8531,1.8543,1.8547,1.8476,1.8494,1.8473,1.8449,1.8481,1.8493,1.8466,1.8557,1.852,1.8529,1.8529,1.8545,1.8559,1.8571,1.841,1.8409,1.8408,0,0,1.8742,1.8722,1.8748,1.8732,1.8705,1.8673,1.868,1.8643,1.8625,1.8643,1.8589,1.8594,1.8594,1.8579,1.8571,1.866,1.8619,1.866,1.8723,1.8742,1.8754,1.8764,1.8794,1.8806,1.8666,1.8667,1.8667,0,1.8808,1.8817,1.8767,1.8781,1.8775,1.871,1.8735,1.8722,1.8697,1.8693,1.8663,1.8662,1.8641,1.8667,1.8689,1.8685,1.869,1.8664,1.8756,1.8766,1.8774,1.8802,1.8814,1.8672,1.8671,1.8671,1.867,0,1.89,1.8907,1.8931,1.8907,1.8904,1.8924,1.8876,1.8878,1.8844,1.8816,1.8833,1.8806,1.8796,1.8799,1.8767,1.8821,1.8804,1.8767,1.8714,1.8794,1.8819,1.883,1.8679,1.8677,1.8676,1.8675,0,0,1.9054,1.9,1.901,1.8997,1.8963,1.8967,1.8984,1.8973,1.8975,1.896,1.8972,1.8973,1.8937,1.8928,1.8893,1.891,1.898,1.8869,1.8868,1.889,1.9036,1.9064,1.9078,1.8953,1.8955,1.8956,1.9038,0,1.9142,1.9167,1.9121,1.9157,1.9162,1.9099,1.9113,1.9094,1.9067,1.9067,1.9037,1.9039,1.8991,1.8985,1.8999,1.8969,1.9008,1.8962,1.8963,1.8963,1.897,1.9091,1.9122,1.92,1.9047,1.9049,1.905,0,1.9248,1.9236,1.9273,1.9234,1.9234,1.9248,1.9233,1.9235,1.9211,1.919,1.9179,1.9137,1.915,1.9099,1.9116,1.9085,1.9083,1.9067,1.9069,1.9067,1.9012,1.9092,1.9224,1.9236,1.9066,1.9064,1.9063,0,1.9355,1.9349,1.9369,1.936,1.9316,1.9327,1.9309,1.9282,1.9278,1.9265,1.9262,1.9251,1.9245,1.9238,1.9194,1.9161,1.9215,1.9161,1.9198,1.9199,1.9212,1.9211,1.9345,1.9211,1.9211,1.9211,1.9211,0,1.9458,1.9482,1.9416,1.9429,1.9453,1.94,1.9427,1.9402,1.9379,1.9385,1.933,1.9337,1.9279,1.928,1.9246,1.9263,1.9262,1.9244,1.9235,1.9249,1.9251,1.9246,1.9239,1.9214,1.9213,1.9213,1.9212,0,1.9582,1.9539,1.9556,1.9513,1.9502,1.9522,1.9485,1.9494,1.9463,1.9472,1.9471,1.9422,1.942,1.9375,1.9364,1.934,1.9372,1.9353,1.938,1.9374,1.9412,1.9409,1.9547,1.9562,1.942,1.9421,1.9422,0,1.965,1.9667,1.9624,1.9624,1.9609,1.961,1.9605,1.9553,1.955,1.9523,1.9535,1.9528,1.952,1.9518,1.9482,1.9472,1.9452,1.9501,1.945,1.9463,1.9451,1.9451,1.9452,1.9512,1.9514,1.9515,1.9516,0,1.9775,1.9752,1.9747,1.9734,1.9729,1.9717,1.9701,1.9704,1.9647,1.9646,1.9642,1.9636,1.9623,1.9616,1.96,1.9581,1.9539,1.9532,1.954,1.9554,1.9569,1.956,1.9408,1.9529,1.9528,1.9527,1.9526,1.9526,1.9872,1.9883,1.9855,1.985,1.9833,1.9819,1.9825,1.9794,1.979,1.9775,1.9745,1.9746,1.9719,1.9693,1.9677,1.9677,1.9652,1.9663,1.9666,1.967,1.9677,1.957,1.9674,1.9673,1.9673,1.9673,1.9672,0,1.9993,1.9971,1.9968,1.9946,1.9943,1.9903,1.9883,1.9882,1.9884,1.9862,1.9855,1.985,1.9843,1.9805,1.9794,1.9801,1.9781,1.9799,1.9798,1.9794,1.97,1.9694,1.9815,1.9815,1.9815,1.9815,1.9815,1.9815,2.0055,2.0072,2.0046,2.0053,2.0031,2.0031,2.0023,2.0009,1.9992,1.9989,1.9982,1.9958,1.993,1.9915,1.9907,1.9896,1.9894,1.9918,1.9901,1.9814,1.9801,1.9788,1.9781,1.9919,1.9919,1.9994,1.9995,1.9995]},{"header":{"parameterUnit":"m.s-1","parameterCategory":1,"la1":30.2991,"la2":30.254,"lo1":-89.0895,"lo2":-89.0444,"dy":0.0017,"dx":0.0017,"nx":28,"ny":28,"refTime":"2024-05-16T03:00:00:Z","depth":0,"parameterNumber":3,"parameterNumberName":"V-component_of_WINDS"},"data":[0,0,0,0,0,0,0,0,0,0,0,0,0,0,0,0,0,0,0,0,0,0,0,0,0,0,0,0,0,0,0,0,0,0,0,0,0,0,0,0,0,0,0,0,0,0,0,0,0,0,0,0,0,0,0,0,0,0,5.7946,5.7946,0,5.8004,5.8005,5.8006,5.7963,5.7961,5.7959,5.7958,5.8013,5.8016,5.8019,0,0,0,0,0,0,0,0,0,0,0,0,0,5.7791,5.7794,5.7946,5.7946,5.7947,5.8004,5.8005,5.8006,5.7963,5.7961,5.7959,5.7957,5.8012,5.8016,5.802,0,0,0,0,0,0,0,0,0,0,0,0,0,5.7855,5.7795,5.7946,5.7933,5.7933,5.8004,5.8005,5.8006,5.7964,5.7961,5.7958,5.7956,5.8011,5.8015,5.802,5.8106,0,0,5.8035,5.8037,0,0,0,0,0,0,0,0,5.7851,5.786,5.7934,5.7934,5.7934,5.7974,5.7971,5.8039,5.7965,5.7952,5.7958,5.7954,5.8002,5.8007,5.8024,5.8108,5.8111,5.8035,5.8038,5.804,5.8042,0,0,0,0,0,0,0,5.7847,5.7858,5.7969,5.7935,5.7935,5.7922,5.7928,5.7984,5.7992,5.7953,5.795,5.7958,5.8001,5.802,5.8025,5.8112,5.8035,5.804,5.8043,5.8044,5.8267,5.8269,0,0,0,0,0,0,5.7844,5.7854,5.7967,5.797,5.7885,5.7928,5.7934,5.7964,5.7991,5.7993,5.796,5.7955,5.8013,5.802,5.8027,5.8128,5.804,5.8045,5.8048,5.8264,5.8267,5.827,0,0,0,0,0,0,5.7841,5.7855,5.7964,5.7912,5.7925,5.7933,5.7966,5.7966,5.7985,5.7997,5.7997,5.7978,5.8011,5.802,5.8086,5.813,5.8047,5.8051,5.826,5.8265,5.8269,5.8332,0,0,0,0,0,0,5.7837,5.7854,5.7888,5.7913,5.7928,5.8025,5.7969,5.7969,5.7994,5.7988,5.8014,5.8015,5.8009,5.8079,5.8091,5.8135,5.8055,5.8256,5.8262,5.8267,5.8326,5.8338,5.8348,0,0,0,0,0,5.7832,5.7903,5.789,5.7904,5.7971,5.8028,5.8036,5.803,5.7997,5.8031,5.8038,5.8014,5.8123,5.8087,5.8099,5.8145,5.8253,5.826,5.8267,5.8321,5.8336,5.8348,0,0,0,0,0,0,5.7883,5.7906,5.7892,5.7974,5.7999,5.8021,5.8063,5.8046,5.8079,5.8073,5.8062,5.8068,5.8137,5.8147,5.8107,5.8228,5.8183,5.8192,5.8219,5.8233,5.8244,5.8241,5.8059,0,0,0,0,0,5.7903,5.7949,5.7967,5.8037,5.8051,5.8055,5.8079,5.8072,5.8097,5.8107,5.8119,5.8143,5.8182,5.8208,5.8245,5.8327,5.8331,5.8364,5.8375,5.8384,5.8393,5.8436,5.845,5.8293,5.8293,5.8293,0,0,5.7947,5.7966,5.7995,5.8048,5.8067,5.8112,5.8064,5.8115,5.8148,5.8114,5.8178,5.8187,5.8212,5.8287,5.832,5.8297,5.8437,5.8393,5.84,5.8404,5.8444,5.8459,5.8472,5.8297,5.8296,5.8296,0,0,5.805,5.8069,5.813,5.8149,5.8178,5.818,5.8194,5.8217,5.8223,5.8286,5.8261,5.8299,5.8368,5.8387,5.8405,5.8512,5.8491,5.8524,5.8583,5.8625,5.8637,5.8648,5.8686,5.8699,5.8533,5.8533,5.8533,0,5.81,5.817,5.8162,5.8215,5.8238,5.821,5.827,5.8288,5.8327,5.8343,5.8317,5.8401,5.8416,5.8494,5.852,5.8536,5.8551,5.8522,5.8636,5.8647,5.8657,5.8693,5.8707,5.8537,5.8536,5.8536,5.8536,0,5.823,5.8278,5.8323,5.8363,5.839,5.8446,5.8445,5.8473,5.8463,5.8467,5.853,5.8547,5.8587,5.8604,5.8594,5.868,5.8665,5.8638,5.8592,5.8676,5.8709,5.8723,5.8542,5.8541,5.854,5.8539,0,0,5.8369,5.8402,5.8418,5.8435,5.8464,5.85,5.8553,5.8593,5.8617,5.8644,5.8687,5.8744,5.8719,5.874,5.8731,5.8768,5.8851,5.8736,5.8737,5.8757,5.8945,5.8965,5.8981,5.8836,5.8839,5.8841,5.8942,0,5.8473,5.8568,5.8561,5.865,5.8693,5.8666,5.8711,5.8733,5.8737,5.8773,5.8776,5.8817,5.8781,5.8793,5.8828,5.8833,5.8888,5.8826,5.8875,5.8877,5.8871,5.8999,5.9021,5.9116,5.8955,5.8958,5.8959,0,5.8608,5.864,5.8734,5.8754,5.8772,5.8814,5.8848,5.8883,5.8906,5.8906,5.8929,5.8913,5.8964,5.8917,5.8986,5.8944,5.8963,5.8969,5.8972,5.8977,5.8924,5.9007,5.9147,5.9161,5.898,5.8978,5.8977,0,5.8699,5.8766,5.883,5.8845,5.8871,5.8901,5.8912,5.8932,5.8956,5.8985,5.8999,5.9034,5.9053,5.9079,5.9072,5.9038,5.9143,5.9095,5.9143,5.9144,5.9168,5.9166,5.9312,5.9179,5.9179,5.9179,5.9179,0,5.8817,5.8875,5.8872,5.8911,5.8974,5.8964,5.9027,5.9034,5.9052,5.9091,5.9068,5.9105,5.9094,5.9129,5.9124,5.9182,5.919,5.9191,5.9189,5.9193,5.9193,5.9206,5.92,5.9183,5.9182,5.9181,5.918,0,5.8931,5.8931,5.8999,5.9017,5.9023,5.9069,5.9083,5.9119,5.9121,5.917,5.9181,5.9183,5.9223,5.9219,5.9264,5.926,5.9332,5.9322,5.9325,5.9323,5.9372,5.9367,5.9532,5.9552,5.9406,5.9407,5.9408,0,5.9006,5.905,5.9073,5.9098,5.9112,5.9153,5.9176,5.9167,5.9192,5.922,5.9252,5.9291,5.9321,5.9386,5.9391,5.9424,5.9415,5.947,5.942,5.9423,5.9416,5.9413,5.9417,5.948,5.9482,5.9483,5.9484,0,5.914,5.9137,5.9173,5.9209,5.9238,5.9265,5.929,5.9311,5.9304,5.9333,5.9374,5.9398,5.9443,5.9481,5.9513,5.9522,5.9502,5.95,5.9513,5.9518,5.9519,5.9519,5.9352,5.9497,5.9495,5.9494,5.9494,5.9493,5.9237,5.9274,5.9296,5.9336,5.9353,5.9376,5.9411,5.9416,5.9451,5.9489,5.948,5.9527,5.9545,5.9586,5.9598,5.9633,5.9613,5.9632,5.9637,5.9642,5.9648,5.9512,5.9639,5.9638,5.9638,5.9638,5.9638,0,5.9369,5.9382,5.9419,5.9454,5.9485,5.9463,5.9488,5.9515,5.9557,5.9577,5.9607,5.9653,5.9689,5.9696,5.973,5.9756,5.9748,5.9765,5.9764,5.9766,5.9664,5.9649,5.9772,5.9772,5.9772,5.9772,5.9772,5.9772,5.9442,5.9504,5.9503,5.9572,5.9583,5.963,5.9646,5.9666,5.9682,5.9735,5.9765,5.9769,5.9783,5.9818,5.9849,5.985,5.9863,5.9885,5.9882,5.9787,5.9773,5.9761,5.9747,5.9888,5.9888,5.9981,5.9982,5.9983]}]]